Time,TemperatureF,DewpointF,PressureIn,WindDirection,WindDirectionDegrees,WindSpeedMPH,WindSpeedGustMPH,Humidity,HourlyPrecipIn,Conditions,Clouds,dailyrainin,SoftwareType,DateUTC
2013-03-07 00:12:00,26.9,24.0,30.28,NNW,329,1.0,-999.0,88,-99.99,,,0.06,weatherlink.com 1.10,2013-03-07 06:12:00,
2013-03-07 00:27:00,26.7,23.0,30.28,NW,325,3.0,-999.0,87,-99.99,,,0.00,weatherlink.com 1.10,2013-03-07 06:27:00,
2013-03-07 00:42:00,26.7,23.0,30.29,NW,325,1.0,-999.0,87,-99.99,,,0.00,weatherlink.com 1.10,2013-03-07 06:42:00,
2013-03-07 00:57:00,26.6,23.0,30.29,NW,325,3.0,-999.0,87,-99.99,,,0.00,weatherlink.com 1.10,2013-03-07 06:57:00,
2013-03-07 01:12:00,26.5,23.0,30.29,NW,325,0.0,-999.0,87,-99.99,,,0.00,weatherlink.com 1.10,2013-03-07 07:12:00,
2013-03-07 01:27:00,26.6,24.0,30.30,NW,325,3.0,-999.0,88,-99.99,,,0.00,weatherlink.com 1.10,2013-03-07 07:27:00,
2013-03-07 01:42:00,26.6,24.0,30.30,NW,325,0.0,-999.0,88,-99.99,,,0.00,weatherlink.com 1.10,2013-03-07 07:42:00,
2013-03-07 01:57:00,26.6,24.0,30.31,NW,325,2.0,-999.0,88,-99.99,,,0.00,weatherlink.com 1.10,2013-03-07 07:57:00,
2013-03-07 02:12:00,26.5,23.0,30.31,NW,325,2.0,-999.0,88,-99.99,,,0.00,weatherlink.com 1.10,2013-03-07 08:12:00,
2013-03-07 02:27:00,26.5,23.0,30.31,NW,325,1.0,-999.0,88,-99.99,,,0.00,weatherlink.com 1.10,2013-03-07 08:27:00,
2013-03-07 02:42:00,26.5,23.0,30.30,NW,325,1.0,-999.0,88,-99.99,,,0.00,weatherlink.com 1.10,2013-03-07 08:42:00,
2013-03-07 02:57:00,26.4,23.0,30.30,NW,325,1.0,-999.0,88,-99.99,,,0.00,weatherlink.com 1.10,2013-03-07 08:57:00,
2013-03-07 03:12:00,26.4,23.0,30.30,NW,325,1.0,-999.0,88,-99.99,,,0.00,weatherlink.com 1.10,2013-03-07 09:12:00,
2013-03-07 03:27:00,26.3,23.0,30.31,NW,325,3.0,-999.0,88,-99.99,,,0.00,weatherlink.com 1.10,2013-03-07 09:27:00,
2013-03-07 03:42:00,26.3,23.0,30.31,NW,325,2.0,-999.0,88,-99.99,,,0.00,weatherlink.com 1.10,2013-03-07 09:42:00,
2013-03-07 03:57:00,26.3,23.0,30.31,NW,325,2.0,-999.0,88,-99.99,,,0.00,weatherlink.com 1.10,2013-03-07 09:57:00,
2013-03-07 04:12:00,26.3,23.0,30.31,NW,325,1.0,-999.0,88,-99.99,,,0.00,weatherlink.com 1.10,2013-03-07 10:12:00,
2013-03-07 04:27:00,26.3,23.0,30.30,NW,325,2.0,-999.0,88,-99.99,,,0.00,weatherlink.com 1.10,2013-03-07 10:27:00,
2013-03-07 04:42:00,26.3,24.0,30.30,NW,325,0.0,-999.0,89,-99.99,,,0.00,weatherlink.com 1.10,2013-03-07 10:42:00,
2013-03-07 04:57:00,26.4,24.0,30.31,NW,325,1.0,-999.0,89,-99.99,,,0.00,weatherlink.com 1.10,2013-03-07 10:57:00,
2013-03-07 05:12:00,26.5,23.0,30.31,North,350,0.0,-999.0,88,-99.99,,,0.00,weatherlink.com 1.10,2013-03-07 11:12:00,
2013-03-07 05:27:00,26.6,23.0,30.30,North,350,0.0,-999.0,87,-99.99,,,0.00,weatherlink.com 1.10,2013-03-07 11:27:00,
2013-03-07 05:42:00,26.6,23.0,30.31,North,350,0.0,-999.0,87,-99.99,,,0.00,weatherlink.com 1.10,2013-03-07 11:42:00,
2013-03-07 05:57:00,26.6,23.0,30.31,North,350,0.0,-999.0,87,-99.99,,,0.00,weatherlink.com 1.10,2013-03-07 11:57:00,
2013-03-07 06:27:00,26.6,24.0,30.32,North,350,0.0,-999.0,88,-99.99,,,0.00,weatherlink.com 1.10,2013-03-07 12:27:00,
2013-03-07 06:42:00,26.6,24.0,30.32,North,350,2.0,-999.0,88,-99.99,,,0.00,weatherlink.com 1.10,2013-03-07 12:42:00,
2013-03-07 06:57:00,26.8,24.0,30.33,North,350,0.0,-999.0,87,-99.99,,,0.00,weatherlink.com 1.10,2013-03-07 12:57:00,
2013-03-07 07:12:00,27.0,24.0,30.33,North,350,0.0,-999.0,87,-99.99,,,0.00,weatherlink.com 1.10,2013-03-07 13:12:00,
2013-03-07 07:27:00,27.2,24.0,30.34,North,350,1.0,-999.0,87,-99.99,,,0.00,weatherlink.com 1.10,2013-03-07 13:27:00,
2013-03-07 07:42:00,27.6,24.0,30.34,North,350,0.0,-999.0,86,-99.99,,,0.00,weatherlink.com 1.10,2013-03-07 13:42:00,
2013-03-07 07:57:00,27.9,24.0,30.35,North,350,0.0,-999.0,85,-99.99,,,0.00,weatherlink.com 1.10,2013-03-07 13:57:00,
2013-03-07 08:12:00,28.3,24.0,30.35,North,350,0.0,-999.0,85,-99.99,,,0.00,weatherlink.com 1.10,2013-03-07 14:12:00,
2013-03-07 08:27:00,28.7,25.0,30.35,North,350,1.0,-999.0,84,-99.99,,,0.00,weatherlink.com 1.10,2013-03-07 14:27:00,
2013-03-07 08:42:00,29.0,25.0,30.36,North,350,0.0,-999.0,84,-99.99,,,0.00,weatherlink.com 1.10,2013-03-07 14:42:00,
2013-03-07 08:57:00,29.3,25.0,30.36,North,350,1.0,-999.0,84,-99.99,,,0.00,weatherlink.com 1.10,2013-03-07 14:57:00,
2013-03-07 09:12:00,29.8,26.0,30.36,North,350,0.0,-999.0,84,-99.99,,,0.00,weatherlink.com 1.10,2013-03-07 15:12:00,
2013-03-07 09:27:00,30.2,26.0,30.36,North,350,0.0,-999.0,83,-99.99,,,0.00,weatherlink.com 1.10,2013-03-07 15:27:00,
2013-03-07 09:42:00,31.2,26.0,30.36,North,350,0.0,-999.0,82,-99.99,,,0.01,weatherlink.com 1.10,2013-03-07 15:42:00,
2013-03-07 09:57:00,31.5,26.0,30.36,North,350,0.0,-999.0,81,-99.99,,,0.01,weatherlink.com 1.10,2013-03-07 15:57:00,
2013-03-07 10:12:00,32.3,26.0,30.37,North,350,0.0,-999.0,79,-99.99,,,0.01,weatherlink.com 1.10,2013-03-07 16:12:00,
2013-03-07 10:27:00,32.8,27.0,30.37,NW,311,1.0,-999.0,78,-99.99,,,0.02,weatherlink.com 1.10,2013-03-07 16:27:00,
2013-03-07 10:42:00,32.9,26.0,30.37,South,186,0.0,-999.0,77,-99.99,,,0.02,weatherlink.com 1.10,2013-03-07 16:42:00,
2013-03-07 10:57:00,33.2,25.0,30.36,South,175,1.0,-999.0,73,-99.99,,,0.02,weatherlink.com 1.10,2013-03-07 16:57:00,
2013-03-07 11:12:00,33.2,25.0,30.36,South,178,0.0,-999.0,73,-99.99,,,0.02,weatherlink.com 1.10,2013-03-07 17:12:00,
2013-03-07 11:27:00,33.6,26.0,30.35,South,177,3.0,-999.0,73,-99.99,,,0.02,weatherlink.com 1.10,2013-03-07 17:27:00,
2013-03-07 11:42:00,34.2,26.0,30.36,South,180,4.0,-999.0,72,-99.99,,,0.03,weatherlink.com 1.10,2013-03-07 17:42:00,
2013-03-07 11:57:00,33.5,26.0,30.35,South,170,0.0,-999.0,73,-99.99,,,0.03,weatherlink.com 1.10,2013-03-07 17:57:00,
2013-03-07 12:12:00,34.2,26.0,30.35,SSW,207,2.0,-999.0,72,-99.99,,,0.03,weatherlink.com 1.10,2013-03-07 18:12:00,
2013-03-07 12:27:00,34.9,26.0,30.34,SSE,154,1.0,-999.0,70,-99.99,,,0.03,weatherlink.com 1.10,2013-03-07 18:27:00,
2013-03-07 12:42:00,34.2,26.0,30.34,South,169,2.0,-999.0,73,-99.99,,,0.03,weatherlink.com 1.10,2013-03-07 18:42:00,
2013-03-07 12:57:00,34.1,26.0,30.34,SSE,156,0.0,-999.0,73,-99.99,,,0.03,weatherlink.com 1.10,2013-03-07 18:57:00,
2013-03-07 13:27:00,34.7,28.0,30.32,SSE,166,2.0,-999.0,76,-99.99,,,0.03,weatherlink.com 1.10,2013-03-07 19:27:00,
2013-03-07 13:42:00,34.1,26.0,30.32,South,170,1.0,-999.0,72,-99.99,,,0.03,weatherlink.com 1.10,2013-03-07 19:42:00,
2013-03-07 13:57:00,35.7,27.0,30.31,South,174,3.0,-999.0,72,-99.99,,,0.03,weatherlink.com 1.10,2013-03-07 19:57:00,
2013-03-07 14:12:00,34.8,27.0,30.32,South,175,1.0,-999.0,73,-99.99,,,0.03,weatherlink.com 1.10,2013-03-07 20:12:00,
2013-03-07 14:27:00,34.6,26.0,30.33,South,173,0.0,-999.0,71,-99.99,,,0.03,weatherlink.com 1.10,2013-03-07 20:27:00,
2013-03-07 14:42:00,34.2,26.0,30.33,SSE,164,1.0,-999.0,72,-99.99,,,0.03,weatherlink.com 1.10,2013-03-07 20:42:00,
2013-03-07 14:57:00,34.3,26.0,30.33,South,170,0.0,-999.0,72,-99.99,,,0.03,weatherlink.com 1.10,2013-03-07 20:57:00,
2013-03-07 15:12:00,34.7,27.0,30.32,SE,144,0.0,-999.0,72,-99.99,,,0.03,weatherlink.com 1.10,2013-03-07 21:12:00,
2013-03-07 15:27:00,34.8,27.0,30.33,SSE,152,1.0,-999.0,72,-99.99,,,0.03,weatherlink.com 1.10,2013-03-07 21:27:00,
2013-03-07 15:42:00,34.3,26.0,30.33,South,173,1.0,-999.0,73,-99.99,,,0.03,weatherlink.com 1.10,2013-03-07 21:42:00,
2013-03-07 15:57:00,34.3,26.0,30.32,South,171,2.0,-999.0,72,-99.99,,,0.03,weatherlink.com 1.10,2013-03-07 21:57:00,
2013-03-07 16:12:00,34.3,26.0,30.32,SE,141,0.0,-999.0,73,-99.99,,,0.03,weatherlink.com 1.10,2013-03-07 22:12:00,
2013-03-07 16:27:00,34.1,26.0,30.31,SSE,165,1.0,-999.0,73,-99.99,,,0.03,weatherlink.com 1.10,2013-03-07 22:27:00,
2013-03-07 16:42:00,33.9,26.0,30.32,SSE,164,1.0,-999.0,73,-99.99,,,0.03,weatherlink.com 1.10,2013-03-07 22:42:00,
2013-03-07 16:57:00,33.6,26.0,30.32,SSE,165,1.0,-999.0,74,-99.99,,,0.03,weatherlink.com 1.10,2013-03-07 22:57:00,
2013-03-07 17:12:00,33.7,27.0,30.32,SSE,164,0.0,-999.0,75,-99.99,,,0.03,weatherlink.com 1.10,2013-03-07 23:12:00,
2013-03-07 17:27:00,33.2,26.0,30.32,SSE,163,0.0,-999.0,76,-99.99,,,0.03,weatherlink.com 1.10,2013-03-07 23:27:00,
2013-03-07 17:42:00,32.7,26.0,30.32,SSE,163,0.0,-999.0,77,-99.99,,,0.03,weatherlink.com 1.10,2013-03-07 23:42:00,
2013-03-07 17:57:00,32.3,26.0,30.32,SSE,163,0.0,-999.0,78,-99.99,,,0.03,weatherlink.com 1.10,2013-03-07 23:57:00,
2013-03-07 18:27:00,32.1,26.0,30.33,SSE,163,0.0,-999.0,79,-99.99,,,0.03,weatherlink.com 1.10,2013-03-08 00:27:00,
2013-03-07 18:42:00,32.3,26.0,30.34,SSE,163,0.0,-999.0,79,-99.99,,,0.03,weatherlink.com 1.10,2013-03-08 00:42:00,
2013-03-07 18:57:00,32.3,26.0,30.34,SSE,163,0.0,-999.0,79,-99.99,,,0.03,weatherlink.com 1.10,2013-03-08 00:57:00,
2013-03-07 19:12:00,32.3,26.0,30.34,SSE,163,0.0,-999.0,79,-99.99,,,0.03,weatherlink.com 1.10,2013-03-08 01:12:00,
2013-03-07 19:27:00,32.3,26.0,30.34,SSE,163,0.0,-999.0,79,-99.99,,,0.03,weatherlink.com 1.10,2013-03-08 01:27:00,
2013-03-07 19:42:00,32.4,27.0,30.33,SSE,163,0.0,-999.0,79,-99.99,,,0.03,weatherlink.com 1.10,2013-03-08 01:42:00,
2013-03-07 19:57:00,32.3,27.0,30.33,SSE,163,0.0,-999.0,80,-99.99,,,0.03,weatherlink.com 1.10,2013-03-08 01:57:00,
2013-03-07 20:12:00,32.2,27.0,30.33,SSE,163,0.0,-999.0,80,-99.99,,,0.03,weatherlink.com 1.10,2013-03-08 02:12:00,
2013-03-07 20:27:00,31.9,27.0,30.33,SSE,163,0.0,-999.0,81,-99.99,,,0.03,weatherlink.com 1.10,2013-03-08 02:27:00,
2013-03-07 20:42:00,31.6,26.0,30.33,SSE,163,0.0,-999.0,81,-99.99,,,0.03,weatherlink.com 1.10,2013-03-08 02:42:00,
2013-03-07 20:57:00,31.2,26.0,30.33,SSE,163,0.0,-999.0,82,-99.99,,,0.03,weatherlink.com 1.10,2013-03-08 02:57:00,
2013-03-07 21:12:00,30.6,26.0,30.33,SSE,163,0.0,-999.0,82,-99.99,,,0.03,weatherlink.com 1.10,2013-03-08 03:12:00,
2013-03-07 21:27:00,30.2,26.0,30.34,SSE,163,0.0,-999.0,83,-99.99,,,0.03,weatherlink.com 1.10,2013-03-08 03:27:00,
2013-03-07 21:42:00,29.7,25.0,30.34,SSE,163,0.0,-999.0,84,-99.99,,,0.03,weatherlink.com 1.10,2013-03-08 03:42:00,
2013-03-07 21:57:00,29.2,25.0,30.34,SSE,163,0.0,-999.0,84,-99.99,,,0.03,weatherlink.com 1.10,2013-03-08 03:57:00,
2013-03-07 22:12:00,28.7,25.0,30.34,SSE,163,0.0,-999.0,85,-99.99,,,0.03,weatherlink.com 1.10,2013-03-08 04:12:00,
2013-03-07 22:27:00,28.2,24.0,30.35,SSE,163,0.0,-999.0,85,-99.99,,,0.03,weatherlink.com 1.10,2013-03-08 04:27:00,
2013-03-07 22:42:00,27.7,24.0,30.34,SSE,163,0.0,-999.0,87,-99.99,,,0.03,weatherlink.com 1.10,2013-03-08 04:42:00,
2013-03-07 22:57:00,27.7,24.0,30.34,SSE,163,0.0,-999.0,87,-99.99,,,0.03,weatherlink.com 1.10,2013-03-08 04:57:00,
2013-03-07 23:12:00,27.6,25.0,30.34,SSE,163,0.0,-999.0,88,-99.99,,,0.03,weatherlink.com 1.10,2013-03-08 05:12:00,
2013-03-07 23:27:00,28.2,25.0,30.34,SSE,163,0.0,-999.0,89,-99.99,,,0.03,weatherlink.com 1.10,2013-03-08 05:27:00,
2013-03-07 23:42:00,28.3,25.0,30.34,SSE,163,0.0,-999.0,88,-99.99,,,0.03,weatherlink.com 1.10,2013-03-08 05:42:00,
2013-03-07 23:57:00,27.9,25.0,30.34,SSE,163,0.0,-999.0,88,-99.99,,,0.03,weatherlink.com 1.10,2013-03-08 05:57:00,